Show Low, AZ

6:30 AM MST on September 22, 2017 (GMT -0700)
Show Low Municipal

Weather History for KSOW - December, 2012

Change the Weather History Date:

Wednesday, December 12, 2012

  Actual Average Record
Temperature  
Mean Temperature 40 °F -  
Max Temperature 51 °F 43 °F 64 °F (1969)
Min Temperature 28 °F 24 °F 1 °F (1978)
Degree Days  
Heating Degree Days 26    
Moisture  
Dew Point 5 °F    
Average Humidity 25    
Maximum Humidity 40    
Minimum Humidity 16    
Precipitation  
Precipitation 0.00 in - - ()
Sea Level Pressure  
Sea Level Pressure 30.06 in    
Wind  
Wind Speed 14 mph (South)    
Max Wind Speed 28 mph    
Max Gust Speed 34 mph    
Visibility 9 miles    
Events      
Averages and records for this station are not official NWS values.
T = Trace of Precipitation, MM = Missing Value Source: NWS Daily Summary

Daily Weather History Graph

Daily Weather History Graph

Search for Another Location

Airport or City:

Trip Planner

Search our weather history database for the weather conditions in past years. The results will help you decide how hot, cold, wet, or windy it might be!

Date:

Astronomy

Dec. 12, 2012 Rise Set
Actual Time 7:17 AM MST 5:11 PM MST
Civil Twilight 6:49 AM MST 5:38 PM MST
Nautical Twilight 6:17 AM MST 6:10 PM MST
Astronomical Twilight 5:47 AM MST 6:40 PM MST
Moon 6:26 AM MST (12/12) 4:50 PM MST (12/12)
Length of Visible Light 10h 49m
Length of Day
9h 53m
Waning Crescent, 0% of the Moon is Illuminated
Dec 12
Waning Crescent
Dec 13
New
Dec 19
First Quarter
Dec 28
Full
Jan 4
Last Quarter

Hourly Weather History & Observations

Time (MST) Temp. Windchill Dew Point Humidity Pressure Visibility Wind Dir Wind Speed Gust Speed Precip Events Conditions
12:15 AM 30.2 °F 20.2 °F 6.8 °F 37% 30.10 in 7.0 mi South 12.7 mph - N/A   Clear
12:35 AM 28.4 °F 18.0 °F 6.8 °F 40% 30.09 in 5.0 mi South 12.7 mph - N/A   Haze
12:55 AM 32.0 °F 22.1 °F 6.8 °F 35% 30.08 in 3.0 mi South 13.8 mph 19.6 mph N/A   Haze
1:15 AM 30.2 °F 20.8 °F 6.8 °F 37% 30.08 in 3.0 mi South 11.5 mph - N/A   Haze
1:35 AM 30.2 °F 20.2 °F 6.8 °F 37% 30.08 in 3.0 mi SSW 12.7 mph - N/A   Haze
1:55 AM 30.2 °F 19.8 °F 6.8 °F 37% 30.07 in 3.0 mi South 13.8 mph - N/A   Haze
2:15 AM 32.0 °F 22.1 °F 5.0 °F 32% 30.07 in 5.0 mi South 13.8 mph - N/A   Clear
2:35 AM 30.2 °F 20.2 °F 5.0 °F 34% 30.08 in 5.0 mi South 12.7 mph - N/A   Haze
2:55 AM 32.0 °F 21.2 °F 5.0 °F 32% 30.07 in 6.0 mi South 16.1 mph - N/A   Clear
3:15 AM 32.0 °F 23.0 °F 5.0 °F 32% 30.08 in 7.0 mi South 11.5 mph - N/A   Clear
3:35 AM 32.0 °F 23.6 °F 5.0 °F 32% 30.07 in 9.0 mi South 10.4 mph - N/A   Clear
3:55 AM 32.0 °F 24.8 °F 3.2 °F 30% 30.06 in 9.0 mi South 8.1 mph - N/A   Clear
4:15 AM 30.2 °F 22.6 °F 3.2 °F 32% 30.06 in 9.0 mi South 8.1 mph - N/A   Clear
4:35 AM 32.0 °F 24.2 °F 3.2 °F 30% 30.05 in 10.0 mi South 9.2 mph - N/A   Clear
4:55 AM 32.0 °F 23.0 °F 3.2 °F 30% 30.04 in 10.0 mi South 11.5 mph - N/A   Clear
5:15 AM 32.0 °F 22.1 °F 3.2 °F 30% 30.04 in 10.0 mi South 13.8 mph - N/A   Clear
5:35 AM 32.0 °F 22.1 °F 3.2 °F 30% 30.04 in 10.0 mi South 13.8 mph - N/A   Clear
5:55 AM 32.0 °F 22.5 °F 3.2 °F 30% 30.04 in 10.0 mi South 12.7 mph - N/A   Clear
6:15 AM 32.0 °F 22.5 °F 3.2 °F 30% 30.04 in 10.0 mi South 12.7 mph - N/A   Clear
6:35 AM 33.8 °F 23.2 °F 3.2 °F 28% 30.04 in 10.0 mi South 17.3 mph 20.7 mph N/A   Clear
6:55 AM 35.6 °F 26.2 °F 3.2 °F 26% 30.04 in 10.0 mi South 15.0 mph - N/A   Clear
7:15 AM 35.6 °F 24.5 °F 1.4 °F 24% 30.05 in 9.0 mi South 20.7 mph 25.3 mph N/A   Clear
7:35 AM 35.6 °F 27.5 °F 1.4 °F 24% 30.06 in 9.0 mi South 11.5 mph - N/A   Clear
7:55 AM 37.4 °F 29.8 °F 1.4 °F 22% 30.06 in 10.0 mi South 11.5 mph - N/A   Clear
8:15 AM 37.4 °F 30.8 °F 3.2 °F 24% 30.06 in 10.0 mi South 9.2 mph - N/A   Clear
8:35 AM 39.2 °F 31.6 °F 3.2 °F 22% 30.07 in 10.0 mi South 12.7 mph 19.6 mph N/A   Clear
8:55 AM 41.0 °F 32.5 °F 3.2 °F 21% 30.07 in 10.0 mi South 17.3 mph 20.7 mph N/A   Clear
9:15 AM 42.8 °F 32.9 °F 3.2 °F 19% 30.07 in 10.0 mi South 26.5 mph 29.9 mph N/A   Clear
9:35 AM 44.6 °F 35.1 °F 3.2 °F 18% 30.08 in 10.0 mi South 27.6 mph 31.1 mph N/A   Clear
9:55 AM 44.6 °F 35.9 °F 3.2 °F 18% 30.09 in 10.0 mi South 23.0 mph 28.8 mph N/A   Clear
10:15 AM 46.4 °F 38.7 °F 3.2 °F 17% 30.09 in 10.0 mi South 20.7 mph 27.6 mph N/A   Clear
10:35 AM 46.4 °F 39.5 °F 3.2 °F 17% 30.09 in 10.0 mi SSW 17.3 mph 29.9 mph N/A   Clear
10:55 AM 48.2 °F - 3.2 °F 16% 30.09 in 10.0 mi SSW 18.4 mph 27.6 mph N/A   Clear
11:15 AM 48.2 °F - 3.2 °F 16% 30.09 in 10.0 mi SSW 23.0 mph 27.6 mph N/A   Clear
11:35 AM 48.2 °F - 3.2 °F 16% 30.08 in 10.0 mi SSW 20.7 mph 31.1 mph N/A   Clear
11:55 AM 48.2 °F - 3.2 °F 16% 30.07 in 10.0 mi SSW 26.5 mph 34.5 mph N/A   Clear
12:15 PM 50.0 °F - 5.0 °F 16% 30.07 in 10.0 mi SSW 19.6 mph 32.2 mph N/A   Clear
12:35 PM 48.2 °F - 5.0 °F 17% 30.06 in 10.0 mi SSW 21.9 mph 32.2 mph N/A   Clear
12:55 PM 48.2 °F - 5.0 °F 17% 30.05 in 10.0 mi SSW 18.4 mph 31.1 mph N/A   Clear
1:15 PM 50.0 °F - 5.0 °F 16% 30.04 in 10.0 mi South 26.5 mph 34.5 mph N/A   Clear
1:35 PM 50.0 °F - 6.8 °F 17% 30.04 in 10.0 mi SSW 21.9 mph 32.2 mph N/A   Clear
1:55 PM 50.0 °F - 6.8 °F 17% 30.04 in 10.0 mi SSW 16.1 mph 27.6 mph N/A   Clear
2:15 PM 50.0 °F - 6.8 °F 17% 30.03 in 10.0 mi South 18.4 mph 28.8 mph N/A   Clear
2:35 PM 50.0 °F - 6.8 °F 17% 30.03 in 10.0 mi SW 23.0 mph 32.2 mph N/A   Clear
2:55 PM 51.8 °F - 6.8 °F 16% 30.03 in 10.0 mi SSW 23.0 mph 28.8 mph N/A   Clear
3:15 PM 50.0 °F - 6.8 °F 17% 30.03 in 10.0 mi SSW 21.9 mph 28.8 mph N/A   Clear
3:35 PM 50.0 °F - 6.8 °F 17% 30.03 in 10.0 mi South 21.9 mph 27.6 mph N/A   Clear
3:55 PM 50.0 °F - 6.8 °F 17% 30.03 in 10.0 mi SSW 20.7 mph 27.6 mph N/A   Clear
4:15 PM 48.2 °F - 6.8 °F 19% 30.03 in 10.0 mi South 16.1 mph 28.8 mph N/A   Clear
4:55 PM 46.4 °F 39.5 °F 5.0 °F 18% 30.03 in 10.0 mi SSW 17.3 mph 20.7 mph N/A   Clear
5:15 PM 44.6 °F 38.1 °F 5.0 °F 20% 30.04 in 10.0 mi South 13.8 mph - N/A   Clear
5:35 PM 42.8 °F 37.5 °F 3.2 °F 19% 30.05 in 10.0 mi South 9.2 mph - N/A   Clear
5:55 PM 39.2 °F 34.2 °F 3.2 °F 22% 30.06 in 10.0 mi South 6.9 mph - N/A   Clear
6:15 PM 39.2 °F 35.0 °F 1.4 °F 21% 30.06 in 10.0 mi SSE 5.8 mph - N/A   Clear
6:35 PM 37.4 °F 32.1 °F 1.4 °F 22% 30.06 in 10.0 mi South 6.9 mph - N/A   Clear
6:55 PM 35.6 °F 28.6 °F 3.2 °F 26% 30.06 in 10.0 mi South 9.2 mph - N/A   Clear
7:15 PM 37.4 °F 30.8 °F 5.0 °F 26% 30.06 in 10.0 mi South 9.2 mph - N/A   Clear
7:35 PM 35.6 °F 29.2 °F 5.0 °F 28% 30.06 in 10.0 mi South 8.1 mph - N/A   Clear
7:55 PM 37.4 °F 32.1 °F 5.0 °F 26% 30.05 in 10.0 mi South 6.9 mph - N/A   Clear
8:15 PM 37.4 °F 30.8 °F 5.0 °F 26% 30.05 in 10.0 mi South 9.2 mph - N/A   Clear
8:35 PM 37.4 °F 31.4 °F 5.0 °F 26% 30.05 in 10.0 mi South 8.1 mph - N/A   Clear
8:55 PM 39.2 °F 33.0 °F 5.0 °F 24% 30.05 in 10.0 mi South 9.2 mph - N/A   Clear
9:15 PM 39.2 °F 32.5 °F 5.0 °F 24% 30.04 in 10.0 mi SSE 10.4 mph - N/A   Clear
9:35 PM 39.2 °F 33.6 °F 6.8 °F 26% 30.04 in 10.0 mi SSE 8.1 mph - N/A   Clear
9:55 PM 37.4 °F 32.1 °F 6.8 °F 28% 30.05 in 10.0 mi South 6.9 mph - N/A   Clear
10:15 PM 33.8 °F 26.4 °F 6.8 °F 32% 30.05 in 10.0 mi South 9.2 mph - N/A   Clear
10:35 PM 32.0 °F 26.4 °F 6.8 °F 35% 30.05 in 10.0 mi South 5.8 mph - N/A   Clear
10:55 PM 32.0 °F 26.4 °F 6.8 °F 35% 30.05 in 10.0 mi SSE 5.8 mph - N/A   Clear
11:15 PM 32.0 °F 26.4 °F 6.8 °F 35% 30.05 in 10.0 mi South 5.8 mph - N/A   Clear
11:35 PM 30.2 °F 24.3 °F 6.8 °F 37% 30.05 in 10.0 mi South 5.8 mph - N/A   Clear
11:55 PM 32.0 °F 26.4 °F 6.8 °F 35% 30.05 in 10.0 mi SSE 5.8 mph - N/A   Clear